Regional Weather Roundup
Issued by NWS State College, PA

Home | Current Version | Previous Version | Graphics & Text | Print | Product List | Glossary On
Versions: 1 2 3 4 5 6 7 8 9 10 11 12 13 14 15 16 17 18 19 20 21 22 23 24 25 26 27 28 29 30 31 32 33 34 35 36 37 38 39 40 41 42 43 44 45 46 47 48 49 50
000
ASUS41 KCTP 260410
RWRCTP
NATIONAL WEATHER SERVICE STATE COLLEGE PA
1200 AM EDT TUE SEP 26 2017

Note: "fair" indicates few or no clouds below 12,000 feet with no
significant weather and/or obstructions to visibility.

* = STATION THAT DOES NOT REPORT PRECIPITATION /E.G. RAIN...SNOW...ETC/
    THUNDER OR FOG.

PAZ002>004-007>009-013>016-020>023-029>032-260500-
WESTERN PENNSYLVANIA

CITY           SKY/WX    TMP DP  RH WIND       PRES   REMARKS
ERIE           PTCLDY    73  66  78 S3        30.01S
MEADVILLE      PTCLDY    73  66  78 CALM      30.05S
FRANKLIN*      PTCLDY    67  66  97 CALM      30.06S
NEW CASTLE     FAIR      66  65  96 CALM      30.04S
BEAVER COUNTY  NOT AVBL
BUTLER*        CLOUDY    66  64  93 CALM      30.04F
PITTSBURGH INT CLOUDY    70  64  81 W5        30.03S
PITTSBURGH     CLOUDY    75  63  66 CALM      30.03S
INDIANA*       CLEAR     68  66  94 E3        30.08S
LATROBE        CLOUDY    66  66 100 CALM      30.04F
WASHINGTON CO* CLOUDY    63  61  94 CALM      30.04S
$$

PAZ004>006-010>012-017>019-024>028-033>037-041-042-045-046-049>053-260500-
CENTRAL PENNSYLVANIA

CITY           SKY/WX    TMP DP  RH WIND       PRES   REMARKS
BRADFORD       PTCLDY    63  62  97 CALM      30.09S
DUBOIS         CLOUDY    71  64  78 SE3       30.07F
CLEARFIELD     CLOUDY    67  66  97 N5        30.07S
JOHNSTOWN      CLEAR     72  64  76 S5        30.10S
ALTOONA        CLEAR     68  66  93 CALM      30.07F
STATE COLLEGE  CLOUDY    69  65  88 CALM      30.06S
WILLIAMSPORT   PTCLDY    71  68  90 W3        30.01S
SELINSGROVE    MOCLDY    69  69 100 CALM      30.03R FOG
FT INDIANTOWN  CLEAR     73  71  95 CALM      30.01S
CAPITAL CITY   PTCLDY    73  68  84 CALM      30.02R
HARRISBURG     MOCLDY    75  72  90 SE7       30.02R
YORK           PTCLDY    74  68  81 CALM      30.03S
$$

PAZ038>040-043-044-047-048-054-055-060>062-067>071-260500-
EASTERN PENNSYLVANIA

CITY           SKY/WX    TMP DP  RH WIND       PRES   REMARKS
SCRANTON       CLEAR     72  67  84 SE3       30.05S
MOUNT POCONO   PTCLDY    63  62  97 CALM      30.10F
ALLENTOWN      MOCLDY    76  64  66 CALM      30.04S
QUAKERTOWN*    PTCLDY    68  66  94 CALM      30.05S
READING        MOCLDY    75  70  84 W3        30.02S
LANCASTER      PTCLDY    72  69  90 CALM      30.03S
COATESVILLE    MOCLDY    70  68  94 CALM      30.06S
POTTSTOWN      PTCLDY    70  68  93 CALM      30.05S
BLUE BELL      MOCLDY    63  63 100 CALM      30.05R
DOYLESTOWN     MOCLDY    68  65  90 CALM      30.03S
WILLOW GROVE   NOT AVBL
NORTH PHILA    CLOUDY    71  63  75 SE3       30.04S
PHILADELPHIA   CLOUDY    71  63  75 SE5       30.03R
$$




USA.gov is the U.S. government's official web portal to all federal, state and local government web resources and services.